• In Uzbekistan
  • List of Countries
  • For 7 days
  • Water Temperature
  • Weather Map
  • Weather Widgets
  • user-avatar
    Login

    Hourly Weather Naftalan

    Today, 15 September, Sunday

    Time Temperature Precipitation Wind Pressure Humidity
    00:00 +22°C° 0 mm 4 mps 767 mmHg 67%
    01:00 +21°C° 0 mm 3 mps 766 mmHg 68%
    02:00 +21°C° 0 mm 3 mps 766 mmHg 69%
    03:00 +21°C° 0 mm 3 mps 766 mmHg 70%
    04:00 +21°C° 0 mm 3 mps 766 mmHg 70%
    05:00 +21°C° 0 mm 3 mps 766 mmHg 70%
    06:00 +21°C° 0 mm 3 mps 766 mmHg 70%
    07:00 +23°C° 0 mm 4 mps 766 mmHg 66%
    08:00 +25°C° 0 mm 4 mps 766 mmHg 61%
    09:00 +27°C° 0 mm 5 mps 766 mmHg 56%
    10:00 +27°C° 0 mm 5 mps 766 mmHg 55%
    11:00 +27°C° 0 mm 5 mps 766 mmHg 54%
    12:00 +28°C° 0 mm 5 mps 765 mmHg 53%
    13:00 +28°C° 0 mm 5 mps 765 mmHg 54%
    14:00 +27°C° 0 mm 5 mps 765 mmHg 55%
    15:00 +27°C° 0 mm 5 mps 764 mmHg 56%
    16:00 +26°C° 0 mm 5 mps 764 mmHg 61%
    17:00 +26°C° 0 mm 5 mps 764 mmHg 65%
    18:00 +25°C° 0 mm 4 mps 764 mmHg 70%
    19:00 +25°C° 0 mm 4 mps 765 mmHg 70%
    20:00 +23°C° 0 mm 4 mps 765 mmHg 70%
    21:00 +23°C° 0 mm 4 mps 766 mmHg 70%
    22:00 +24°C° 0 mm 3 mps 766 mmHg 71%
    23:00 +24°C° 0 mm 2 mps 766 mmHg 72%

    Tomorrow, 16 September, Monday

    Time Temperature Precipitation Wind Pressure Humidity
    00:00 +24°C° 0 mm 2 mps 766 mmHg 73%
    01:00 +23°C° 0.3 mm 2 mps 766 mmHg 76%
    02:00 +23°C° 0.3 mm 1 mps 766 mmHg 79%
    03:00 +22°C° 0.3 mm 1 mps 766 mmHg 83%
    04:00 +22°C° 0.3 mm 1 mps 766 mmHg 83%
    05:00 +22°C° 0.3 mm 1 mps 767 mmHg 83%
    06:00 +22°C° 0.3 mm 1 mps 767 mmHg 82%
    07:00 +24°C° 0.1 mm 2 mps 767 mmHg 76%
    08:00 +25°C° 0.1 mm 3 mps 767 mmHg 70%
    09:00 +26°C° 0.1 mm 4 mps 767 mmHg 64%
    10:00 +27°C° 0 mm 4 mps 766 mmHg 62%
    11:00 +27°C° 0 mm 5 mps 765 mmHg 59%
    12:00 +28°C° 0 mm 5 mps 764 mmHg 56%
    13:00 +28°C° 0 mm 6 mps 764 mmHg 55%
    14:00 +27°C° 0 mm 6 mps 763 mmHg 53%
    15:00 +27°C° 0 mm 6 mps 763 mmHg 51%
    16:00 +27°C° 0 mm 5 mps 762 mmHg 54%
    17:00 +26°C° 0 mm 4 mps 762 mmHg 56%
    18:00 +25°C° 0 mm 4 mps 762 mmHg 59%
    19:00 +25°C° 0 mm 3 mps 762 mmHg 62%
    20:00 +24°C° 0 mm 3 mps 762 mmHg 65%
    21:00 +24°C° 0 mm 3 mps 762 mmHg 69%
    22:00 +24°C° 0 mm 2 mps 762 mmHg 71%
    23:00 +23°C° 0 mm 2 mps 762 mmHg 73%

    Day after tomorrow, 17 September, Tuesday

    Time Temperature Precipitation Wind Pressure Humidity
    00:00 +23°C° 0 mm 2 mps 761 mmHg 74%
    01:00 +23°C° 0 mm 2 mps 761 mmHg 76%
    02:00 +22°C° 0 mm 1 mps 761 mmHg 78%
    03:00 +22°C° 0 mm 1 mps 761 mmHg 80%
    04:00 +21°C° 0 mm 2 mps 761 mmHg 81%
    05:00 +21°C° 0 mm 2 mps 760 mmHg 82%
    06:00 +20°C° 0 mm 2 mps 760 mmHg 83%
    07:00 +23°C° 0 mm 2 mps 760 mmHg 74%
    08:00 +25°C° 0 mm 1 mps 760 mmHg 66%
    09:00 +27°C° 0 mm 1 mps 760 mmHg 57%
    10:00 +28°C° 0 mm 1 mps 760 mmHg 54%
    11:00 +29°C° 0 mm 2 mps 759 mmHg 51%
    12:00 +30°C° 0 mm 2 mps 758 mmHg 47%
    13:00 +30°C° 0 mm 3 mps 758 mmHg 49%
    14:00 +30°C° 0 mm 3 mps 757 mmHg 51%
    15:00 +30°C° 0 mm 4 mps 757 mmHg 53%
    16:00 +29°C° 0 mm 4 mps 757 mmHg 58%
    17:00 +28°C° 0 mm 4 mps 757 mmHg 63%
    18:00 +26°C° 0 mm 4 mps 757 mmHg 68%
    19:00 +26°C° 0 mm 4 mps 757 mmHg 71%
    20:00 +25°C° 0 mm 3 mps 757 mmHg 73%
    21:00 +25°C° 0 mm 3 mps 758 mmHg 76%
    22:00 +25°C° 0 mm 2 mps 758 mmHg 76%
    23:00 +24°C° 0 mm 2 mps 758 mmHg 75%

    18 September, Wednesday

    Time Temperature Precipitation Wind Pressure Humidity
    00:00 +24°C° 0 mm 2 mps 759 mmHg 74%
    01:00 +24°C° 0 mm 2 mps 759 mmHg 74%
    02:00 +24°C° 0 mm 2 mps 759 mmHg 73%
    03:00 +23°C° 0 mm 2 mps 760 mmHg 73%
    04:00 +24°C° 0 mm 2 mps 760 mmHg 70%
    05:00 +24°C° 0 mm 2 mps 761 mmHg 68%
    06:00 +24°C° 0 mm 2 mps 761 mmHg 66%
    07:00 +26°C° 0 mm 2 mps 762 mmHg 60%
    08:00 +27°C° 0 mm 3 mps 763 mmHg 54%
    09:00 +29°C° 0 mm 3 mps 763 mmHg 48%
    10:00 +30°C° 0 mm 3 mps 763 mmHg 46%
    11:00 +32°C° 0 mm 4 mps 763 mmHg 44%
    12:00 +32°C° 0 mm 4 mps 763 mmHg 42%
    13:00 +32°C° 0 mm 5 mps 763 mmHg 47%
    14:00 +30°C° 0 mm 5 mps 763 mmHg 51%
    15:00 +29°C° 0 mm 6 mps 762 mmHg 55%
    16:00 +28°C° 0 mm 6 mps 763 mmHg 61%
    17:00 +27°C° 0 mm 6 mps 763 mmHg 66%
    18:00 +26°C° 0 mm 6 mps 763 mmHg 72%
    19:00 +26°C° 0 mm 5 mps 763 mmHg 70%
    20:00 +25°C° 0 mm 5 mps 763 mmHg 68%
    21:00 +25°C° 0 mm 5 mps 764 mmHg 67%
    22:00 +25°C° 0 mm 5 mps 763 mmHg 69%
    23:00 +25°C° 0 mm 4 mps 763 mmHg 71%

    19 September, Thursday

    Time Temperature Precipitation Wind Pressure Humidity
    00:00 +25°C° 0 mm 4 mps 762 mmHg 73%
    01:00 +23°C° 0 mm 4 mps 762 mmHg 75%
    02:00 +23°C° 0 mm 4 mps 762 mmHg 76%
    03:00 +24°C° 0 mm 3 mps 762 mmHg 78%
    04:00 +24°C° 0 mm 3 mps 762 mmHg 78%
    05:00 +24°C° 0 mm 3 mps 762 mmHg 78%
    06:00 +24°C° 0 mm 3 mps 762 mmHg 79%
    07:00 +25°C° 0 mm 3 mps 762 mmHg 72%
    08:00 +27°C° 0 mm 3 mps 763 mmHg 64%
    09:00 +28°C° 0 mm 3 mps 763 mmHg 57%
    10:00 +29°C° 0 mm 3 mps 763 mmHg 54%
    11:00 +30°C° 0 mm 3 mps 763 mmHg 50%
    12:00 +31°C° 0 mm 3 mps 762 mmHg 47%
    13:00 +32°C° 0 mm 4 mps 762 mmHg 49%
    14:00 +30°C° 0 mm 5 mps 762 mmHg 50%
    15:00 +30°C° 0 mm 5 mps 762 mmHg 52%
    16:00 +29°C° 0 mm 5 mps 762 mmHg 57%
    17:00 +27°C° 0 mm 5 mps 762 mmHg 62%
    18:00 +26°C° 0 mm 5 mps 762 mmHg 67%
    19:00 +26°C° 0 mm 4 mps 763 mmHg 69%
    20:00 +25°C° 0 mm 4 mps 763 mmHg 72%
    21:00 +25°C° 0 mm 4 mps 763 mmHg 74%
    22:00 +25°C° 0 mm 4 mps 763 mmHg 75%
    23:00 +23°C° 0 mm 4 mps 763 mmHg 77%

    20 September, Friday

    Time Temperature Precipitation Wind Pressure Humidity
    00:00 +23°C° 0 mm 4 mps 762 mmHg 78%
    01:00 +23°C° 0 mm 4 mps 762 mmHg 79%
    02:00 +22°C° 0 mm 4 mps 762 mmHg 80%
    03:00 +22°C° 0 mm 4 mps 761 mmHg 81%
    04:00 +22°C° 0 mm 3 mps 761 mmHg 83%
    05:00 +22°C° 0 mm 3 mps 761 mmHg 84%
    06:00 +22°C° 0 mm 3 mps 761 mmHg 85%
    07:00 +24°C° 0 mm 2 mps 761 mmHg 77%
    08:00 +26°C° 0 mm 2 mps 760 mmHg 69%
    09:00 +27°C° 0 mm 2 mps 760 mmHg 61%
    10:00 +28°C° 0 mm 2 mps 760 mmHg 57%
    11:00 +29°C° 0 mm 2 mps 759 mmHg 53%
    12:00 +30°C° 0 mm 2 mps 759 mmHg 49%
    13:00 +30°C° 0 mm 3 mps 758 mmHg 48%
    14:00 +30°C° 0 mm 3 mps 758 mmHg 46%
    15:00 +30°C° 0 mm 4 mps 757 mmHg 45%
    16:00 +28°C° 0 mm 3 mps 757 mmHg 51%
    17:00 +27°C° 0 mm 3 mps 757 mmHg 57%
    18:00 +26°C° 0 mm 3 mps 757 mmHg 62%
    19:00 +25°C° 0 mm 3 mps 757 mmHg 66%
    20:00 +25°C° 0 mm 3 mps 757 mmHg 69%
    21:00 +24°C° 0 mm 3 mps 757 mmHg 72%
    22:00 +24°C° 0 mm 3 mps 757 mmHg 75%
    23:00 +24°C° 0 mm 3 mps 757 mmHg 77%
    Show more